STARLINK-1795, 46696

Orbit data source: Space-Track

STARLINK-1795, 46696 is a payload satellite owned by SpaceX/Seattle (US) in LEO that was launched on Sun, 18 Oct 2020 UTC via an FALCON 9 launch vehicle from the Air Force Eastern Test Range (AFETR). Payload-class satellites include a variety of spacecraft equipped with specific instruments for various scientific and technological missions. These include communications satellites like Starlink; space stations such as the ISS; scientific satellites like the Hubble; Earth observation satellites from companies like Planet Labs, Umbra, and HawkEye 360; GPS; miniature CubeSats for education and research; and military/defense satellites.

Loading next visibility...
Identifier
46696, 2020-073AC
Orbit
LEO
Country
Flag of USUS
Related business
Manufacturer
SpaceX/Seattle
Mission
Partially operational Commercial Communications
Bus & Motor
STARLINK, Unknown motor
Mass
260 kg wet, ~248 kg dry
Launch date (UTC)
2020-10-18 (5 years ago)
Launch vehicle
FALCON 9
Launch site
Air Force Eastern Test Range (AFETR)
Object type
Payload
Rocket body
Debris
Shape & HBR
Box + 1 Pan, 10.1 m
Radar Cross Section
13.562 m², Large (>1 m²)

Expand to show TLE details & history
Last TLE update: 16 hours ago

TLE from 16 hours ago
0 STARLINK-1795
1 46696U 20073AC  25353.02361669  .00091488  00000-0  18698-2 0  9998
2 46696  53.0509 211.4785 0011950 129.1171 231.0900 15.45341155285421
Epoch: 2025-12-19T00:34Z
TLE epoch observation values (Epoch: 2025-12-19T00:34:00.482Z)
Latitude
0.00006°
Longitude
115.10582°
Altitude
436.386 km
Speed
7.648 km/s
True Right ascension
14h 05m 54s
True Declination
0° 00' 00"
Sunlit
Object was in daylight at epoch
Visualization orbit readout
Latitude
Unknown
Longitude
Unknown
Altitude
Unknown
Speed
Unknown
Apparent Right ascension
Unknown
Apparent Declination
Unknown
Sunlit
N/A
Visualization observer readout
Local Sidereal Time
15:36:02
Azimuth
Unknown
Elevation
Unknown
Doppler factor
Unknown
Orbital elements
Apogee altitude
438.788 km
Perigee altitude
422.515 km
Semi-major axis
6,808.789 km
Eccentricity
0.0012
Inclination
53.0509°
RAAN
211.4785°
Arg. of periapsis
129.1171°
True anomaly
230.98354°
Mean anomaly
231.09°
Eccentric anomaly
231.03676°
Mean motion
3.86312 °/min
Orbital period
93.19 mins
BSTAR
0.0018698
Loading maneuver chart data...
Computing Atmospheric mass density...

Documentation

Showing up to 5 results
|